{"data":{"norad_id":49961,"intl_designator":"2021-122A","name":"SHIJIAN-6 05A (SJ-6 05A)","alt_names":[],"object_type":"PAYLOAD","status":"ACTIVE","operator":null,"country":"PRC","launch_date":"2021-12-10","launch_site_code":"JSC","launch_vehicle":null,"mission":null,"orbit_class":"UNKNOWN","rcs_meters":null,"size_class":null,"mass_kg":null,"dimensions":null,"purposes":[],"wikipedia_slug":null,"has_3d_model":false,"image_url":null,"decayed_at":null,"tle_current":{"epoch":"2026-09-20T03:24:42.245568Z","epoch_age_seconds":131334,"freshness":"FRESH","line1":"1 49961U 21122A   26263.14215562  .00000530  00000+0  47315-4 0  9993","line2":"2 49961  97.4229 227.1814 0002533  41.9393 318.2024 14.99774427262982","mean_motion":14.99774427,"eccentricity":0.0002533,"inclination_deg":97.4229,"raan_deg":227.1814,"arg_perigee_deg":41.9393,"mean_anomaly_deg":318.2024,"bstar":4.7315e-5,"rev_number":26298,"period_min":96.014438843342,"perigee_km":565.8333515896,"apogee_km":569.35205825812,"semimajor_km":6945.7297049239,"source":"CELESTRAK","updated_at":"2026-09-21T09:00:08.141888Z"}}}